Location: Dunedin
(45.8670°S, 170.5000°E)
Time: 16:44:27
(UTC+13:00)

SL-16 R/B - Pass Details

Date: 24 January 2019
Orbit: 842 x 846 km, 71.0° (Epoch: 19 February)

Event Time Altitude Azimuth Distance (km) Brightness Sun altitude
Rises 22:38:16 0° 332° (NNW) 3,402 5.2 -11.8°
Reaches altitude 10° 22:40:42 10° 331° (NNW) 2,473 4.5 -12.1°
Maximum altitude 22:46:24 79° 243° (WSW) 875 2.4 -12.8°
Drops below altitude 10° 22:52:10 10° 156° (SSE) 2,499 5.0 -13.5°
Sets 22:54:39 0° 154° (SSE) 3,440 5.7 -13.8°
